This demonstration page uses our WeatherBlox Daily Observations layout. Learn more.

Left ArrowRight Arrow

Hourly Observations for August 16, 2022

Temp ( °F °C ) Dew Point ( °F °C ) Humidity (%) Winds ( mph kmh ) Pressure ( in mb ) Visibility ( mi km ) Precip ( " mm )
12:53 am 00:53 Clear 72 22.2 71 21.7 97 97 Calm 29.87 1012 10 16 0.00 0.00
1:53 am 01:53 Clear 73 22.8 71 21.7 94 94 Calm 29.87 1012 10 16 0.00 0.00
2:53 am 02:53 Clear 72 22.2 70 21.1 93 93 Calm 29.86 1011 10 16 0.00 0.00
3:53 am 03:53 Clear 71 21.7 69 20.6 93 93 Calm 29.85 1011 10 16 0.00 0.00
4:53 am 04:53 Clear 70 21.1 69 20.6 97 97 Calm 29.83 1010 10 16 0.01 0.13
5:53 am 05:53 Clear 70 21.1 68 20 93 93 Calm 29.85 1011 10 16 0.00 0.00
6:53 am 06:53 Clear 69 20.6 67 19.4 93 93 NE 3 6 29.86 1011 10 16 0.00 0.00
7:53 am 07:53 Sunny 70 21.1 68 20 93 93 Calm 29.88 1012 10 16 0.00 0.00
8:53 am 08:53 Sunny 74 23.3 70 21.1 87 87 Calm 29.90 1013 10 16 0.00 0.00
9:53 am 09:53 Sunny 76 24.4 69 20.6 79 79 E 3 6 29.90 1013 10 16 0.00 0.00
10:53 am 10:53 Mostly Cloudy 79 26.1 70 21.1 74 74 NNW 3 6 29.91 1013 10 16 0.00 0.00
11:53 am 11:53 Mostly Cloudy 79 26.1 69 20.6 72 72 Calm 29.92 1013 10 16 0.00 0.00
12:53 pm 12:53 Mostly Cloudy 82 27.8 68 20 63 63 Calm 29.92 1013 10 16 0.00 0.00
1:53 pm 13:53 Mostly Cloudy 85 29.4 67 19.4 55 55 N 5 7 29.92 1013 10 16 0.00 0.00
2:53 pm 14:53 Partly Cloudy 86 30 65 18.3 50 50 WNW 8 13 29.91 1013 10 16 0.00 0.00
3:33 pm 15:33 Mostly Cloudy 86 30 66 18.9 51 51 NW 8 13 29.88 1012 10 16 0.00 0.00
3:53 pm 15:53 Partly Cloudy 86 30 66 18.9 51 51 NNW 7 11 29.90 1013 10 16 0.00 0.00
4:53 pm 16:53 Cloudy 83 28.3 65 18.3 55 55 NW 10 17 29.89 1012 10 16 0.00 0.00
5:53 pm 17:53 Sunny 82 27.8 66 18.9 58 58 NW 5 7 29.88 1012 10 16 0.00 0.00
6:53 pm 18:53 Sunny 82 27.8 66 18.9 58 58 NNW 6 9 29.87 1012 10 16 0.00 0.00
7:53 pm 19:53 Sunny 80 26.7 67 19.4 64 64 N 5 7 29.90 1012 10 16 0.00 0.00
8:53 pm 20:53 Mostly Clear 78 25.6 67 19.4 69 69 Calm 29.92 1013 10 16 0.00 0.00
9:53 pm 21:53 Mostly Clear 77 25 67 19.4 71 71 NW 6 9 29.92 1013 10 16 0.00 0.00
10:53 pm 22:53 Clear 76 24.4 66 18.9 71 71 Calm 29.93 1014 10 16 0.00 0.00
11:53 pm 23:53 Clear 75 23.9 66 18.9 74 74 E 3 6 29.93 1014 10 16 0.00 0.00

Powered by AerisWeather